When you browse on this site, cookies collect data to enhance your experience and personalize the content and advertising you see.
Visit our Privacy Policy to learn more. By continuing to use the site, you agree to this use of cookies and data.
  • In Hungary
  • List of Countries
  • For 7 days
  • Water Temperature
  • Weather Map
  • News
  • Weather Widgets
  • user-avatar
    Login

    Hourly Weather Zykovo

    Today, 22 November, Friday

    Time Temperature Precipitation Wind Pressure Humidity
    00:00 -8°C° 0 mm 2 mps 775 mmHg 43%
    01:00 -8°C° 0 mm 1 mps 774 mmHg 43%
    02:00 -8°C° 0 mm 1 mps 774 mmHg 44%
    03:00 -8°C° 0 mm 1 mps 775 mmHg 45%
    04:00 -8°C° 0 mm 1 mps 774 mmHg 46%
    05:00 -8°C° 0 mm 1 mps 774 mmHg 47%
    06:00 -8°C° 0 mm 1 mps 774 mmHg 47%
    07:00 -8°C° 0 mm 1 mps 774 mmHg 47%
    08:00 -8°C° 0 mm 1 mps 774 mmHg 47%
    09:00 -8°C° 0 mm 1 mps 774 mmHg 47%
    10:00 -7°C° 0 mm 1 mps 774 mmHg 44%
    11:00 -6°C° 0 mm 1 mps 774 mmHg 40%
    12:00 -4°C° 0 mm 1 mps 774 mmHg 37%
    13:00 -3°C° 0 mm 1 mps 774 mmHg 37%
    14:00 -3°C° 0 mm 1 mps 773 mmHg 37%
    15:00 -3°C° 0 mm 1 mps 773 mmHg 37%
    16:00 -4°C° 0 mm 1 mps 773 mmHg 39%
    17:00 -4°C° 0 mm 1 mps 772 mmHg 42%
    18:00 -6°C° 0 mm 1 mps 772 mmHg 44%
    19:00 -6°C° 0 mm 1 mps 772 mmHg 44%
    20:00 -6°C° 0 mm 1 mps 772 mmHg 44%
    21:00 -6°C° 0 mm 1 mps 772 mmHg 45%
    22:00 -7°C° 0 mm 1 mps 772 mmHg 44%
    23:00 -7°C° 0 mm 1 mps 772 mmHg 44%

    Tomorrow, 23 November, Saturday

    Time Temperature Precipitation Wind Pressure Humidity
    00:00 -7°C° 0 mm 1 mps 772 mmHg 44%
    01:00 -7°C° 0 mm 1 mps 772 mmHg 44%
    02:00 -7°C° 0 mm 1 mps 772 mmHg 43%
    03:00 -7°C° 0 mm 1 mps 772 mmHg 43%
    04:00 -7°C° 0 mm 1 mps 771 mmHg 42%
    05:00 -7°C° 0 mm 1 mps 771 mmHg 41%
    06:00 -7°C° 0 mm 1 mps 770 mmHg 41%
    07:00 -7°C° 0 mm 1 mps 770 mmHg 40%
    08:00 -7°C° 0 mm 1 mps 770 mmHg 39%
    09:00 -6°C° 0 mm 1 mps 771 mmHg 39%
    10:00 -6°C° 0 mm 1 mps 770 mmHg 36%
    11:00 -4°C° 0 mm 1 mps 770 mmHg 34%
    12:00 -3°C° 0 mm 1 mps 770 mmHg 32%
    13:00 -3°C° 0 mm 1 mps 770 mmHg 32%
    14:00 -3°C° 0 mm 1 mps 770 mmHg 32%
    15:00 -3°C° 0 mm 1 mps 769 mmHg 33%
    16:00 -3°C° 0 mm 1 mps 769 mmHg 34%
    17:00 -3°C° 0 mm 1 mps 769 mmHg 35%
    18:00 -4°C° 0 mm 1 mps 768 mmHg 36%
    19:00 -4°C° 0 mm 1 mps 768 mmHg 35%
    20:00 -4°C° 0 mm 1 mps 768 mmHg 35%
    21:00 -4°C° 0 mm 1 mps 768 mmHg 35%
    22:00 -4°C° 0 mm 1 mps 768 mmHg 35%
    23:00 -4°C° 0 mm 1 mps 768 mmHg 34%

    Day after tomorrow, 24 November, Sunday

    Time Temperature Precipitation Wind Pressure Humidity
    00:00 -4°C° 0 mm 1 mps 768 mmHg 34%
    01:00 -4°C° 0 mm 1 mps 768 mmHg 34%
    02:00 -4°C° 0 mm 1 mps 768 mmHg 34%
    03:00 -4°C° 0 mm 1 mps 768 mmHg 34%
    04:00 -4°C° 0 mm 1 mps 767 mmHg 34%
    05:00 -4°C° 0 mm 1 mps 767 mmHg 34%
    06:00 -6°C° 0 mm 1 mps 767 mmHg 34%
    07:00 -6°C° 0 mm 1 mps 767 mmHg 34%
    08:00 -6°C° 0 mm 1 mps 767 mmHg 34%
    09:00 -4°C° 0 mm 1 mps 767 mmHg 33%
    10:00 -4°C° 0 mm 1 mps 767 mmHg 31%
    11:00 -3°C° 0 mm 1 mps 767 mmHg 29%
    12:00 -2°C° 0 mm 1 mps 766 mmHg 27%
    13:00 -2°C° 0 mm 1 mps 766 mmHg 28%
    14:00 -2°C° 0 mm 1 mps 766 mmHg 30%
    15:00 -2°C° 0 mm 1 mps 766 mmHg 31%
    16:00 -3°C° 0 mm 1 mps 766 mmHg 32%
    17:00 -3°C° 0 mm 1 mps 765 mmHg 33%
    18:00 -6°C° 0 mm 2 mps 765 mmHg 35%
    19:00 -6°C° 0 mm 2 mps 765 mmHg 35%
    20:00 -6°C° 0 mm 2 mps 765 mmHg 35%
    21:00 -6°C° 0 mm 2 mps 765 mmHg 35%
    22:00 -6°C° 0 mm 2 mps 764 mmHg 35%
    23:00 -6°C° 0 mm 2 mps 764 mmHg 35%

    25 November, Monday

    Time Temperature Precipitation Wind Pressure Humidity
    00:00 -4°C° 0 mm 1 mps 764 mmHg 35%
    01:00 -4°C° 0 mm 1 mps 764 mmHg 35%
    02:00 -4°C° 0 mm 1 mps 764 mmHg 35%
    03:00 -6°C° 0 mm 1 mps 764 mmHg 35%
    04:00 -7°C° 0 mm 2 mps 763 mmHg 36%
    05:00 -7°C° 0 mm 2 mps 763 mmHg 36%
    06:00 -7°C° 0 mm 2 mps 763 mmHg 36%
    07:00 -7°C° 0 mm 2 mps 763 mmHg 36%
    08:00 -7°C° 0 mm 2 mps 763 mmHg 36%
    09:00 -7°C° 0 mm 2 mps 763 mmHg 36%
    10:00 -6°C° 0 mm 2 mps 763 mmHg 32%
    11:00 -5°C° 0 mm 2 mps 763 mmHg 29%
    12:00 -3°C° 0 mm 2 mps 762 mmHg 26%
    13:00 -4°C° 0 mm 2 mps 762 mmHg 27%
    14:00 -4°C° 0 mm 2 mps 762 mmHg 28%
    15:00 -4°C° 0 mm 2 mps 761 mmHg 29%
    16:00 -5°C° 0 mm 2 mps 761 mmHg 31%
    17:00 -5°C° 0 mm 2 mps 761 mmHg 32%
    18:00 -6°C° 0 mm 2 mps 761 mmHg 34%
    19:00 -6°C° 0 mm 2 mps 761 mmHg 34%
    20:00 -6°C° 0 mm 2 mps 761 mmHg 34%
    21:00 -6°C° 0 mm 2 mps 761 mmHg 35%
    22:00 -6°C° 0 mm 2 mps 760 mmHg 35%
    23:00 -7°C° 0 mm 2 mps 760 mmHg 35%

    26 November, Tuesday

    Time Temperature Precipitation Wind Pressure Humidity
    00:00 -7°C° 0 mm 2 mps 760 mmHg 35%
    01:00 -7°C° 0 mm 2 mps 760 mmHg 35%
    02:00 -7°C° 0 mm 2 mps 760 mmHg 35%
    03:00 -7°C° 0 mm 2 mps 760 mmHg 35%
    04:00 -7°C° 0 mm 2 mps 759 mmHg 36%
    05:00 -7°C° 0 mm 2 mps 759 mmHg 36%
    06:00 -8°C° 0 mm 2 mps 759 mmHg 37%
    07:00 -8°C° 0 mm 2 mps 759 mmHg 37%
    08:00 -8°C° 0 mm 2 mps 759 mmHg 37%
    09:00 -8°C° 0 mm 2 mps 759 mmHg 37%
    10:00 -7°C° 0 mm 2 mps 759 mmHg 34%
    11:00 -6°C° 0 mm 2 mps 759 mmHg 31%
    12:00 -5°C° 0 mm 2 mps 759 mmHg 29%
    13:00 -5°C° 0 mm 2 mps 758 mmHg 30%
    14:00 -5°C° 0 mm 2 mps 758 mmHg 31%
    15:00 -5°C° 0 mm 2 mps 758 mmHg 32%
    16:00 -5°C° 0 mm 2 mps 757 mmHg 35%
    17:00 -6°C° 0 mm 2 mps 757 mmHg 38%
    18:00 -7°C° 0 mm 2 mps 757 mmHg 40%
    19:00 -7°C° 0 mm 2 mps 757 mmHg 44%
    20:00 -7°C° 0 mm 2 mps 757 mmHg 47%
    21:00 -7°C° 0 mm 2 mps 757 mmHg 50%
    22:00 -7°C° 0 mm 2 mps 757 mmHg 55%
    23:00 -7°C° 0 mm 2 mps 757 mmHg 60%

    27 November, Wednesday

    Time Temperature Precipitation Wind Pressure Humidity
    00:00 -7°C° 0 mm 2 mps 757 mmHg 65%
    01:00 -8°C° 0 mm 2 mps 756 mmHg 68%
    02:00 -8°C° 0 mm 2 mps 756 mmHg 72%
    03:00 -8°C° 0 mm 2 mps 756 mmHg 76%
    04:00 -8°C° 0 mm 2 mps 756 mmHg 78%
    05:00 -8°C° 0 mm 2 mps 756 mmHg 79%
    06:00 -8°C° 0 mm 2 mps 755 mmHg 81%
    07:00 -8°C° 0 mm 2 mps 755 mmHg 82%
    08:00 -8°C° 0 mm 2 mps 755 mmHg 82%
    09:00 -9°C° 0 mm 3 mps 755 mmHg 82%
    10:00 -8°C° 0 mm 3 mps 755 mmHg 77%
    11:00 -7°C° 0 mm 3 mps 755 mmHg 72%
    12:00 -6°C° 0 mm 3 mps 755 mmHg 66%
    13:00 -6°C° 0 mm 3 mps 755 mmHg 67%
    14:00 -6°C° 0 mm 3 mps 754 mmHg 68%
    15:00 -5°C° 0 mm 3 mps 754 mmHg 69%
    16:00 -5°C° 0 mm 3 mps 754 mmHg 70%
    17:00 -5°C° 0 mm 4 mps 754 mmHg 72%
    18:00 -5°C° 0 mm 4 mps 754 mmHg 74%
    19:00 -5°C° 0 mm 4 mps 754 mmHg 74%
    20:00 -5°C° 0 mm 4 mps 753 mmHg 74%
    21:00 -4°C° 0 mm 4 mps 753 mmHg 74%
    22:00 -4°C° 0 mm 4 mps 753 mmHg 73%
    23:00 -4°C° 0 mm 4 mps 753 mmHg 73%
    Show more